Погода в Гюэранде

Франция     47°19′47″N   2°25′37″W
темп.,
°C
ветер,
м/с
пор.,
м/с
влажн.,
%
обл.,
%
осадки,
мм/ч
давл.,
гПа
погр.,
м
7 мая, пт
пт723:00+11с5777100 0.1 1013619
02:00+9с4577100 0.1 1015492
05:00+9ссв3474100 0.0 1016371
08:00+8всв3376100 0.0 1017182
11:00+9юв2267100 0.0 1019281
14:00+10ю4473100 0.0 1019407
17:00+11ю5680100 0.1 1018497
20:00+12ююв7785100 0.5 1017541
8 мая, сб
сб823:00+12ююв81185100 0.3 1016688
02:00+13ю91294100 0.3 1014382
05:00+13ююз8129442 0.0 1013333
08:00+14ююз914928 0.0 1012343
11:00+14ююз8139020 0.0 1011265
14:00+14ю91489100 0.0 1010289
17:00+14ю711885 0.0 1008191
20:00+14ююз4587100 0.0 100687
9 мая, вс
вс923:00+14ю33845 0.0 100418
02:00+14ююв228061 0.0 100213
05:00+14вюв44822 0.0 99945
08:00+13вюв44933 0.0 99861
11:00+14юз4695100 0.0 998108
14:00+13зюз91287100 0.0 1000627
17:00+13юз71084100 0.0 1001643
20:00+13ююз91283100 0.1 1001871
10 мая, пн
пн1023:00+13юз101384100 0.3 1001964
02:00+12юз11138112 0.3 10031084
05:00+12зюз1112781 0.1 10041125
08:00+12юз10117311 0.1 10061096
11:00+13юз9117663 0.0 1007993
14:00+13ююз911775 0.5 10071003
17:00+13юз810775 0.5 1007935
20:00+13зюз79765 0.5 1007852
11 мая, вт
вт1123:00+13зюз56735 0.0 1008937
02:00+12юз4575100 0.6 1008495
05:00+12зюз5675100 0.9 1008586
08:00+12зюз6769100 1.3 1008990
11:00+12зюз896797 0.1 10101077
14:00+12зюз89719 0.3 10111061
17:00+12зюз89731 0.1 1011949
20:00+12зюз911700 0.1 10121233